COSMOS 1275 DEB

Satellite information

Favourite Embed

Satellite Type and Status

DEBRISIN ORBIT

Key statistics

Satellite COSMOS 1275 DEB at a glance.

Uptime

16264

Days in orbit

Revolutions

≈ 14.3

Per day

Orbit

LEO

Low Earth Orbit

Inclination

82.8

Latest

Satellite identification and parameters

Extended collection of information and parameters for COSMOS 1275 DEB.

Object identification

Identified? True

Debris? True

Object name: COSMOS 1275 DEB

International designator: 1981-053UX

Object number (NORAD): 42231

Object ID (CCSDS): 42231

Country: COMMONWEALTH OF INDEPENDENT STATES (CIS)

Current information (Y/N): Y

RCS size: SMALL

Orbital parameters

Period: 100.623 minutes

Inclination: 82.759 deg

SMA: 7166.258 km

Apoapsis: 811.892 km

Periapsis: 764.354 km

RAAN: 36.4502 deg

Eccentricy: 0.00331681

Argument of periapsis: 45.6034 deg

Mean anomaly: 314.786 deg

Mean motion: 14.31080693 rev/day

Mean motion (dot): 0.00007099 rev/day2

B* drag term: 0.0026713741 1/REarth

Two-line elements (TLE)

Creation date: Dec. 11, 2025, 3:54 a.m.

Reference frame: TEME

Reference center: EARTH

Epoch: Dec. 10, 2025, 10:02 a.m. UTC

TLE line 0: 0 COSMOS 1275 DEB

TLE line 1: 1 42231U 81053UX 25344.41834036 .00007099 00000-0 26714-2 0 9993

TLE line 2: 2 42231 82.7590 36.4502 0033168 45.6034 314.7860 14.31080693622495

Live tracking on map

Real-time ground track for satellite COSMOS 1275 DEB.

In-orbit conjunctions

A list of the most updated potential collisions computed for object COSMOS 1275 DEB.

Target Orbit TCA Probability of collision Miss distance Type
THOR BURNER 2 R/B SSO 2025-10-15 13:15:29 0.000148924 126.0 (m) ROCKET BODY
FENGYUN 1C DEB SSO 2024-08-15 23:13:40 0.0002677776 79.0 (m) DEBRIS
CZ-4 DEB SSO 2024-08-07 00:18:10 0.0001613238 212.0 (m) DEBRIS

Associated space launch

Navigation satellite providing location information for the Tsiklon-B navigation system

COSMOS 1275 DEB was lifted into orbit during the mission ‘Kosmos-3M | Parus 27’, on board a Kosmos-3M space rocket.

The launch took place on June 4, 1981, 3:41 p.m. from 132/2.

For more information about the launch, click the button.

Launch to space Kosmos-3M | Parus 27
Kosmos-3M | Parus 27

Agency: N/A

Status: Launch Successful

Launch date: June 4, 1981, 3:41 p.m. UTC

Rocket: Kosmos-3M

Launch pad: 132/2

Location: Plesetsk Cosmodrome, Russian Federation

...

Latest news about this satellite

There are no fresh news available about this satellite. Check back as we update our databases every day.


Newsletter sign-up

Weekly statistics, charts and insights to help you stay on top of the space industry.